SKW1031 KLCH-KIAH

Flight info

Callsign SKW1031
Flight time 0h 26m
Altitude 12000
Route DAS
Aircraft E75L/M-SDE3GILORVW/S

Departure

Time 2026-04-26 02:00
Airport Lake Charles Regional Airport (KLCH)

Arrival

Time 2026-04-26 02:27
Airport George Bush Intercontinental Airport (KIAH)
Time Latitude Longitude Altitude Speed Heading
2026-04-26 01:41 30.12366 -93.22118 17 ft 0 kts 64°
2026-04-26 01:49 30.12361 -93.22131 17 ft 3 kts 53°
2026-04-26 01:50 30.12347 -93.22147 17 ft 3 kts 22°
2026-04-26 01:50 30.12330 -93.22151 17 ft 3 kts 345°
2026-04-26 01:50 30.12321 -93.22148 20 ft 0 kts 334°
2026-04-26 01:53 30.12346 -93.22163 17 ft 9 kts 332°
2026-04-26 01:54 30.12435 -93.22216 17 ft 19 kts 334°
2026-04-26 01:54 30.12569 -93.22288 18 ft 23 kts 335°
2026-04-26 01:54 30.12721 -93.22370 19 ft 25 kts 336°
2026-04-26 01:54 30.12878 -93.22455 19 ft 19 kts 336°
2026-04-26 01:55 30.12988 -93.22515 18 ft 11 kts 332°
2026-04-26 01:55 30.13043 -93.22510 19 ft 9 kts 51°
2026-04-26 01:55 30.13088 -93.22446 20 ft 11 kts 51°
2026-04-26 01:55 30.13144 -93.22367 21 ft 14 kts 51°
2026-04-26 01:56 30.13209 -93.22271 20 ft 17 kts 53°
2026-04-26 01:56 30.13285 -93.22158 22 ft 19 kts 51°
2026-04-26 01:56 30.13371 -93.22031 20 ft 21 kts 51°
2026-04-26 01:56 30.13467 -93.21891 22 ft 23 kts 52°
2026-04-26 01:57 30.13569 -93.21741 22 ft 25 kts 52°
2026-04-26 01:57 30.13640 -93.21640 23 ft 9 kts 36°
2026-04-26 01:57 30.13661 -93.21634 25 ft 0 kts 351°
2026-04-26 01:58 30.13671 -93.21639 15 ft 4 kts 334°
2026-04-26 01:59 30.13707 -93.21666 24 ft 5 kts 314°
2026-04-26 01:59 30.13712 -93.21707 24 ft 7 kts 245°
2026-04-26 01:59 30.13706 -93.21721 24 ft 0 kts 237°
2026-04-26 01:59 30.13692 -93.21741 24 ft 18 kts 232°
2026-04-26 02:00 30.13423 -93.22134 21 ft 107 kts 231°
2026-04-26 02:00 30.12804 -93.23043 204 ft 167 kts 233°
2026-04-26 02:00 30.12090 -93.24147 1255 ft 174 kts 232°
2026-04-26 02:00 30.11330 -93.25336 2259 ft 192 kts 233°
2026-04-26 02:01 30.10551 -93.26636 3367 ft 203 kts 233°
2026-04-26 02:01 30.09682 -93.27972 4474 ft 215 kts 230°
2026-04-26 02:01 30.08734 -93.29365 5484 ft 231 kts 233°
2026-04-26 02:01 30.08227 -93.31142 6771 ft 241 kts 268°
2026-04-26 02:02 30.08666 -93.33087 7904 ft 263 kts 297°
2026-04-26 02:02 30.09624 -93.34953 9148 ft 277 kts 301°
2026-04-26 02:02 30.10670 -93.36863 10430 ft 286 kts 299°
2026-04-26 02:02 30.11494 -93.39017 11491 ft 301 kts 290°
2026-04-26 02:03 30.12145 -93.41490 11833 ft 344 kts 285°
2026-04-26 02:03 30.12642 -93.44233 11948 ft 342 kts 281°
2026-04-26 02:03 30.13023 -93.46855 11989 ft 329 kts 280°
2026-04-26 02:03 30.13362 -93.49417 11993 ft 315 kts 279°
2026-04-26 02:04 30.13668 -93.51907 12000 ft 313 kts 277°
2026-04-26 02:04 30.13809 -93.54442 12013 ft 316 kts 276°
2026-04-26 02:04 30.14043 -93.56969 12030 ft 316 kts 278°
2026-04-26 02:04 30.14321 -93.59493 12034 ft 316 kts 278°
2026-04-26 02:05 30.14525 -93.62024 12030 ft 316 kts 275°
2026-04-26 02:05 30.14658 -93.64560 12032 ft 316 kts 275°
2026-04-26 02:05 30.14778 -93.67073 12033 ft 316 kts 274°
2026-04-26 02:05 30.14896 -93.69615 12029 ft 317 kts 274°
2026-04-26 02:06 30.15014 -93.72162 12031 ft 317 kts 274°
2026-04-26 02:06 30.15132 -93.74712 12031 ft 317 kts 274°
2026-04-26 02:06 30.15249 -93.77258 12030 ft 317 kts 274°
2026-04-26 02:06 30.15366 -93.79803 12032 ft 316 kts 274°
2026-04-26 02:07 30.15482 -93.82339 12028 ft 316 kts 274°
2026-04-26 02:07 30.15596 -93.84849 12029 ft 316 kts 274°
2026-04-26 02:07 30.15711 -93.87395 12031 ft 316 kts 274°
2026-04-26 02:07 30.15826 -93.89937 12029 ft 316 kts 274°
2026-04-26 02:08 30.15940 -93.92479 12023 ft 316 kts 274°
2026-04-26 02:08 30.16053 -93.94998 12029 ft 316 kts 274°
2026-04-26 02:08 30.16166 -93.97540 12028 ft 316 kts 274°
2026-04-26 02:08 30.16279 -94.00079 12027 ft 316 kts 274°
2026-04-26 02:09 30.16391 -94.02621 12012 ft 317 kts 274°
2026-04-26 02:09 30.16465 -94.04313 12009 ft 317 kts 274°
2026-04-26 02:09 30.16577 -94.06857 11998 ft 316 kts 274°
2026-04-26 02:09 30.16724 -94.10230 12011 ft 317 kts 274°
2026-04-26 02:10 30.16834 -94.12781 12002 ft 316 kts 274°
2026-04-26 02:10 30.16909 -94.14496 11997 ft 316 kts 274°
2026-04-26 02:10 30.17018 -94.17034 12002 ft 316 kts 274°
2026-04-26 02:10 30.17126 -94.19547 12002 ft 316 kts 274°
2026-04-26 02:11 30.17234 -94.22084 11998 ft 316 kts 274°
2026-04-26 02:11 30.17342 -94.24630 12007 ft 316 kts 274°
2026-04-26 02:11 30.17351 -94.27174 12000 ft 318 kts 266°
2026-04-26 02:11 30.17070 -94.29713 12004 ft 318 kts 263°
2026-04-26 02:12 30.16704 -94.32240 12004 ft 318 kts 262°
2026-04-26 02:12 30.16311 -94.34738 11811 ft 319 kts 261°
2026-04-26 02:12 30.15903 -94.37267 11540 ft 324 kts 261°
2026-04-26 02:12 30.15486 -94.39828 11270 ft 318 kts 261°
2026-04-26 02:13 30.15083 -94.42296 10993 ft 308 kts 261°
2026-04-26 02:13 30.14693 -94.44699 10712 ft 300 kts 261°
2026-04-26 02:13 30.14312 -94.47045 10400 ft 294 kts 261°
2026-04-26 02:13 30.13947 -94.49323 10084 ft 289 kts 261°
2026-04-26 02:14 30.13585 -94.51598 9785 ft 286 kts 261°
2026-04-26 02:14 30.13234 -94.53819 9458 ft 286 kts 261°
2026-04-26 02:14 30.12877 -94.56122 9124 ft 285 kts 261°
2026-04-26 02:14 30.12537 -94.58374 8800 ft 283 kts 261°
2026-04-26 02:15 30.12206 -94.60620 8482 ft 282 kts 261°
2026-04-26 02:15 30.11888 -94.62846 8166 ft 280 kts 261°
2026-04-26 02:15 30.11583 -94.65063 7860 ft 279 kts 261°
2026-04-26 02:15 30.11294 -94.67280 7547 ft 278 kts 261°
2026-04-26 02:16 30.11018 -94.69488 7231 ft 277 kts 261°
2026-04-26 02:16 30.10755 -94.71698 6922 ft 277 kts 261°
2026-04-26 02:16 30.10505 -94.73905 6619 ft 277 kts 261°
2026-04-26 02:16 30.10264 -94.76112 6316 ft 277 kts 260°
2026-04-26 02:17 30.09927 -94.78267 6004 ft 276 kts 256°
2026-04-26 02:17 30.09492 -94.80424 5693 ft 274 kts 254°
2026-04-26 02:17 30.09030 -94.82558 5385 ft 273 kts 254°
2026-04-26 02:17 30.08574 -94.84631 5361 ft 254 kts 253°
2026-04-26 02:18 30.08160 -94.86526 5385 ft 230 kts 253°
2026-04-26 02:18 30.07788 -94.88241 5364 ft 210 kts 253°
2026-04-26 02:18 30.07449 -94.89807 5326 ft 199 kts 253°
2026-04-26 02:18 30.06961 -94.91278 5301 ft 193 kts 241°
2026-04-26 02:19 30.06311 -94.92634 5281 ft 194 kts 237°
2026-04-26 02:19 30.05617 -94.93964 5173 ft 196 kts 236°
2026-04-26 02:19 30.04897 -94.95301 4973 ft 195 kts 236°
2026-04-26 02:19 30.04180 -94.96622 4780 ft 193 kts 235°
2026-04-26 02:20 30.03469 -94.97934 4580 ft 192 kts 236°
2026-04-26 02:20 30.02753 -94.99242 4389 ft 192 kts 236°
2026-04-26 02:20 30.02043 -95.00543 4189 ft 190 kts 235°
2026-04-26 02:20 30.01338 -95.01834 3995 ft 190 kts 235°
2026-04-26 02:21 30.00632 -95.03122 3817 ft 189 kts 235°
2026-04-26 02:21 29.99934 -95.04402 3678 ft 189 kts 235°
2026-04-26 02:21 29.99418 -95.05780 3535 ft 192 kts 257°
2026-04-26 02:21 29.99361 -95.07320 3422 ft 189 kts 268°
2026-04-26 02:22 29.99350 -95.08799 3279 ft 180 kts 264°
2026-04-26 02:22 29.99328 -95.10235 3131 ft 178 kts 266°
2026-04-26 02:22 29.99336 -95.11637 3033 ft 172 kts 267°
2026-04-26 02:22 29.99336 -95.13018 2990 ft 172 kts 266°
2026-04-26 02:23 29.99337 -95.14369 2991 ft 171 kts 266°
2026-04-26 02:23 29.99338 -95.15756 2923 ft 177 kts 266°
2026-04-26 02:23 29.99340 -95.17200 2613 ft 181 kts 266°
2026-04-26 02:23 29.99342 -95.18632 2393 ft 175 kts 265°
2026-04-26 02:24 29.99341 -95.20015 2221 ft 171 kts 265°
2026-04-26 02:24 29.99342 -95.21396 1974 ft 170 kts 265°
2026-04-26 02:24 29.99344 -95.22748 1751 ft 166 kts 263°
2026-04-26 02:24 29.99343 -95.24052 1550 ft 161 kts 263°
2026-04-26 02:25 29.99343 -95.25329 1327 ft 159 kts 263°
2026-04-26 02:25 29.99343 -95.26613 1111 ft 159 kts 265°
2026-04-26 02:25 29.99344 -95.27894 905 ft 159 kts 265°
2026-04-26 02:25 29.99344 -95.29163 730 ft 162 kts 264°
2026-04-26 02:26 29.99336 -95.30478 514 ft 163 kts 265°
2026-04-26 02:26 29.99332 -95.31788 322 ft 165 kts 266°
2026-04-26 02:26 29.99335 -95.33094 114 ft 157 kts 265°
2026-04-26 02:26 29.99332 -95.34235 103 ft 127 kts 272°
2026-04-26 02:27 29.99343 -95.34995 106 ft 72 kts 272°
2026-04-26 02:27 29.99309 -95.35273 104 ft 13 kts 198°
2026-04-26 02:27 29.99222 -95.35276 105 ft 13 kts 178°
2026-04-26 02:27 29.99122 -95.35274 105 ft 16 kts 178°
2026-04-26 02:28 29.99005 -95.35274 105 ft 18 kts 179°
2026-04-26 02:28 29.98874 -95.35274 105 ft 20 kts 180°
2026-04-26 02:28 29.98730 -95.35276 105 ft 22 kts 180°
2026-04-26 02:28 29.98574 -95.35276 105 ft 23 kts 179°
2026-04-26 02:29 29.98443 -95.35238 104 ft 20 kts 149°
2026-04-26 02:29 29.98378 -95.35180 105 ft 6 kts 91°
2026-04-26 02:29 29.98380 -95.35109 105 ft 13 kts 89°
2026-04-26 02:29 29.98379 -95.34981 105 ft 19 kts 92°
2026-04-26 02:30 29.98377 -95.34825 105 ft 20 kts 89°
2026-04-26 02:30 29.98374 -95.34662 105 ft 20 kts 92°
2026-04-26 02:30 29.98379 -95.34518 105 ft 12 kts 63°
2026-04-26 02:30 29.98442 -95.34513 105 ft 9 kts 313°
2026-04-26 02:31 29.98460 -95.34534 105 ft 2 kts 314°
2026-04-26 02:31 29.98461 -95.34536 105 ft 0 kts 314°